星链-33694 (STARLINK-33694)

导读

STARLINK-33694是美国SpaceX星链星座的成员卫星,于2025年3月31日发射升空。星链项目旨在搭建全球卫星互联网,为全球偏远地区、灾害场景等提供高速低延迟网络服务,该卫星入轨后将参与星座组网,补充完善星链系统的通信覆盖能力,助力SpaceX实现全球互联的网络建设目标。

基本信息
目录编号:
63407
目录名称:
STARLINK-33694
国际标识:
2025-065J
轨道中心:
EARTH
卫星名称:
星链-33694
卫星全名:
星链-33694 (STARLINK-33694)
卫星状态:
在轨 (已飞行440 天)
发射日期:
2025-03-31 UTC
国别 :
美国 (US)
星等 :
--
轨道信息
数据来源 国际轨道数据
星历时间: 2026-06-13T22:53:47+0800
15小时前
查看轨道信息
半长轴: 6861.123km
偏心率: 0.0000395
轨道倾角: 43.006°
近地点辐角 132.153°
升交点赤经 285.110°
平近点角 227.936°
近地点: 482.714km
远地点: 483.258km
周期: 94.265分钟
每日圈数: 15.276011
详细信息
固有亮度:
5
最大亮度:
2.5
卫星平台:
Starlink V1.0
覆盖范围:
全球
运营商:
太空探索技术公司
运营商所在国:
美国
制造商(研发单位):
太空探索技术公司
制造商所在国:
美国
使用方式:
暂无
卫星简介
Starlink 计划是 SpaceX 推出的全球卫星互联网项目,通过发射低轨道卫星,为全球尤其是偏远地区提供高速、低延迟的互联网服务。自 2019 年起,Starlink 已部署数千颗卫星,旨在缩小全球数字鸿沟,推动互联网普及。该项目还为军事、航空等行业提供通信支持,带来广泛经济效益。
2D轨道图
3D轨道图
轨道高度分析图
轨道倾角分析图
轨道综合分析图
查看轨道综合分析图